| time (UTC) | temp C | wind direction | speed KPH | gust KPH | rain 1hr cm | rain 24hr cm | rain mn cm | humidity % | barometer mb |
| 20260505213030 | 25 | 245 | 0.0 | 6.4 | 0.00 | 0.00 | 0.00 | 37 | 1014.0 |
| 20260505211523 | 25 | 267 | 3.2 | 11.3 | 0.00 | 0.00 | 0.00 | 36 | 1014.2 |
| 20260505210020 | 25 | 246 | 1.6 | 8.0 | 0.00 | 0.00 | 0.00 | 36 | 1014.2 |
| 20260505204528 | 25 | 296 | 3.2 | 8.0 | 0.00 | 0.00 | 0.00 | 35 | 1014.2 |
| 20260505203014 | 25 | 262 | 1.6 | 8.0 | 0.00 | 0.00 | 0.00 | 35 | 1014.6 |
| 20260505201533 | 25 | 289 | 1.6 | 11.3 | 0.00 | 0.00 | 0.00 | 34 | 1015.0 |
| 20260505200018 | 25 | 233 | 3.2 | 6.4 | 0.00 | 0.00 | 0.00 | 35 | 1015.0 |
| 20260505194520 | 25 | 316 | 4.8 | 12.9 | 0.00 | 0.00 | 0.00 | 35 | 1015.2 |
| 20260505193020 | 25 | 251 | 1.6 | 8.0 | 0.00 | 0.00 | 0.00 | 36 | 1015.4 |
| 20260505191514 | 25 | 261 | 1.6 | 9.7 | 0.00 | 0.00 | 0.00 | 36 | 1015.4 |
| 20260505190015 | 25 | 264 | 3.2 | 6.4 | 0.00 | 0.00 | 0.00 | 35 | 1015.6 |
| 20260505184526 | 25 | 240 | 1.6 | 14.5 | 0.00 | 0.00 | 0.00 | 36 | 1015.8 |
| 20260505183027 | 25 | 265 | 3.2 | 8.0 | 0.00 | 0.00 | 0.00 | 34 | 1016.1 |
| 20260505181514 | 25 | 251 | 4.8 | 14.5 | 0.00 | 0.00 | 0.00 | 35 | 1016.6 |
| 20260505180012 | 24 | 244 | 3.2 | 6.4 | 0.00 | 0.00 | 0.00 | 39 | 1016.6 |
| 20260505174532 | 24 | 257 | 3.2 | 8.0 | 0.00 | 0.00 | 0.00 | 39 | 1016.9 |
| 20260505173028 | 24 | 234 | 1.6 | 6.4 | 0.00 | 0.00 | 0.00 | 36 | 1016.8 |
| 20260505171533 | 23 | 269 | 3.2 | 11.3 | 0.00 | 0.00 | 0.00 | 41 | 1016.8 |
| 20260505170012 | 23 | 241 | 1.6 | 12.9 | 0.00 | 0.00 | 0.00 | 42 | 1016.8 |
| 20260505164516 | 23 | 250 | 1.6 | 6.4 | 0.00 | 0.00 | 0.00 | 42 | 1016.8 |
| 20260505163021 | 23 | 206 | 3.2 | 9.7 | 0.00 | 0.00 | 0.00 | 45 | 1016.9 |
| 20260505161524 | 22 | 262 | 1.6 | 11.3 | 0.00 | 0.00 | 0.00 | 49 | 1017.2 |
| 20260505153033 | 20 | 259 | 1.6 | 8.0 | 0.00 | 0.00 | 0.00 | 56 | 1017.6 |
| 20260505151522 | 20 | 304 | 0.0 | 6.4 | 0.00 | 0.00 | 0.00 | 58 | 1017.8 |
| 20260505124526 | 15 | 248 | 0.0 | 4.8 | 0.00 | 0.00 | 0.00 | 76 | 1017.2 |
| 20260505123044 | 15 | 257 | 0.0 | 4.8 | 0.00 | 0.00 | 0.00 | 77 | 1017.0 |
| 20260505121528 | 14 | 240 | 1.6 | 4.8 | 0.00 | 0.00 | 0.00 | 78 | 1016.9 |
| 20260505120039 | 13 | 241 | 0.0 | 4.8 | 0.00 | 0.00 | 0.00 | 79 | 1016.7 |
| 20260505114521 | 12 | 244 | 0.0 | 1.6 | 0.00 | 0.00 | 0.00 | 81 | 1016.7 |
| 20260505113004 | 11 | 241 | 0.0 | 0.0 | 0.00 | 0.00 | 0.00 | 86 | 1016.7 |
| 20260505111508 | 10 | 241 | 0.0 | 0.0 | 0.00 | 0.00 | 0.00 | 85 | 1016.5 |
| 20260505101506 | 11 | 241 | 0.0 | 0.0 | 0.00 | 0.00 | 0.00 | 80 | 1016.3 |
| 20260505100011 | 12 | 241 | 0.0 | 1.6 | 0.00 | 0.00 | 0.00 | 79 | 1016.1 |
| 20260505094515 | 12 | 242 | 0.0 | 1.6 | 0.00 | 0.00 | 0.00 | 78 | 1016.2 |
| 20260505093020 | 12 | 251 | 0.0 | 0.0 | 0.00 | 0.00 | 0.00 | 78 | 1016.3 |
| 20260505091523 | 11 | 273 | 0.0 | 0.0 | 0.00 | 0.00 | 0.00 | 79 | 1016.0 |
| 20260505090026 | 11 | 273 | 0.0 | 0.0 | 0.00 | 0.00 | 0.00 | 80 | 1015.9 |
| 20260505084514 | 11 | 262 | 0.0 | 0.0 | 0.00 | 0.00 | 0.00 | 80 | 1015.8 |
| 20260505083019 | 11 | 262 | 0.0 | 0.0 | 0.00 | 0.00 | 0.00 | 78 | 1015.7 |
| 20260505081525 | 12 | 262 | 0.0 | 0.0 | 0.00 | 0.00 | 0.00 | 76 | 1015.7 |
| 20260505080028 | 12 | 262 | 0.0 | 0.0 | 0.00 | 0.00 | 0.00 | 74 | 1015.6 |
| 20260505074530 | 13 | 262 | 0.0 | 0.0 | 0.00 | 0.00 | 0.00 | 72 | 1015.6 |
| 20260505073012 | 13 | 285 | 0.0 | 0.0 | 0.00 | 0.00 | 0.00 | 72 | 1015.5 |
| 20260505071518 | 13 | 285 | 0.0 | 0.0 | 0.00 | 0.00 | 0.00 | 71 | 1015.4 |
| 20260505070023 | 13 | 285 | 0.0 | 0.0 | 0.00 | 0.00 | 0.00 | 69 | 1015.4 |
| 20260505064533 | 13 | 294 | 0.0 | 0.0 | 0.00 | 0.00 | 0.00 | 69 | 1015.3 |
| 20260505063029 | 14 | 307 | 0.0 | 0.0 | 0.00 | 0.00 | 0.00 | 66 | 1015.3 |
| 20260505061518 | 15 | 307 | 0.0 | 1.6 | 0.00 | 0.00 | 0.00 | 64 | 1015.3 |
| 20260505060004 | 14 | 270 | 0.0 | 1.6 | 0.00 | 0.00 | 0.00 | 64 | 1015.4 |
| 20260505054512 | 13 | 283 | 0.0 | 0.0 | 0.00 | 0.00 | 0.00 | 65 | 1015.5 |
| 20260505053008 | 14 | 283 | 0.0 | 0.0 | 0.00 | 0.00 | 0.00 | 64 | 1015.7 |
| 20260505051512 | 15 | 283 | 0.0 | 0.0 | 0.00 | 0.00 | 0.00 | 62 | 1015.7 |
| 20260505041511 | 16 | 283 | 0.0 | 1.6 | 0.00 | 0.00 | 0.00 | 54 | 1016.0 |
| 20260505040018 | 16 | 281 | 0.0 | 1.6 | 0.00 | 0.00 | 0.00 | 54 | 1016.0 |
| 20260505034526 | 17 | 281 | 0.0 | 1.6 | 0.00 | 0.00 | 0.00 | 52 | 1016.0 |
| 20260505033022 | 17 | 255 | 0.0 | 3.2 | 0.00 | 0.00 | 0.00 | 53 | 1016.0 |
| 20260505031507 | 17 | 267 | 0.0 | 1.6 | 0.00 | 0.00 | 0.00 | 52 | 1015.9 |
| 20260505030032 | 17 | 264 | 0.0 | 1.6 | 0.00 | 0.00 | 0.00 | 52 | 1016.0 |
| 20260505024518 | 16 | 250 | 0.0 | 0.0 | 0.00 | 0.00 | 0.00 | 55 | 1016.0 |
| 20260505023022 | 16 | 250 | 0.0 | 0.0 | 0.00 | 0.00 | 0.00 | 57 | 1015.8 |
| 20260505021526 | 17 | 250 | 0.0 | 0.0 | 0.00 | 0.00 | 0.00 | 53 | 1015.8 |
| 20260505020010 | 17 | 250 | 0.0 | 0.0 | 0.00 | 0.00 | 0.00 | 51 | 1015.6 |
| 20260505014519 | 17 | 250 | 0.0 | 0.0 | 0.00 | 0.00 | 0.00 | 53 | 1015.5 |
| 20260505013020 | 18 | 250 | 0.0 | 0.0 | 0.00 | 0.00 | 0.00 | 51 | 1015.4 |
| 20260505011524 | 18 | 250 | 0.0 | 0.0 | 0.00 | 0.00 | 0.00 | 50 | 1015.4 |
| 20260505010026 | 19 | 250 | 0.0 | 0.0 | 0.00 | 0.00 | 0.00 | 46 | 1015.3 |
| 20260505004528 | 20 | 250 | 0.0 | 0.0 | 0.00 | 0.00 | 0.00 | 42 | 1015.2 |
| 20260505003013 | 21 | 250 | 0.0 | 1.6 | 0.00 | 0.00 | 0.00 | 40 | 1015.0 |
| 20260505001520 | 21 | 244 | 0.0 | 3.2 | 0.00 | 0.00 | 0.00 | 38 | 1014.9 |
| 20260505000023 | 22 | 279 | 1.6 | 4.8 | 0.00 | 0.00 | 0.00 | 38 | 1014.7 |
| 20260504234524 | 22 | 260 | 0.0 | 4.8 | 0.00 | 0.00 | 0.00 | 38 | 1014.5 |
| 20260504233028 | 23 | 300 | 0.0 | 4.8 | 0.00 | 0.00 | 0.00 | 36 | 1014.3 |
| 20260504231518 | 23 | 254 | 3.2 | 6.4 | 0.00 | 0.00 | 0.00 | 35 | 1014.3 |
| 20260504230024 | 23 | 245 | 0.0 | 3.2 | 0.00 | 0.00 | 0.00 | 36 | 1014.3 |
| 20260504224532 | 23 | 291 | 0.0 | 9.7 | 0.00 | 0.00 | 0.00 | 34 | 1014.3 |
| 20260504223025 | 23 | 308 | 0.0 | 4.8 | 0.00 | 0.00 | 0.00 | 34 | 1014.5 |
| 20260504221538 | 23 | 345 | 0.0 | 4.8 | 0.00 | 0.00 | 0.00 | 33 | 1014.6 |
| 20260504220020 | 23 | 262 | 0.0 | 6.4 | 0.00 | 0.00 | 0.00 | 34 | 1014.4 |
| 20260504214523 | 23 | 265 | 0.0 | 4.8 | 0.00 | 0.00 | 0.00 | 30 | 1014.5 |